Preview of NWS' New Version of Forecast
This preview is not operational and should not be used for support decisions.

Regional Weather Roundup (RWR)

Issued by National Weather Service (NWS)

                            
000
ASUS42 KTBW 191017
RWRFL 
FLORIDA REGIONAL WEATHER ROUNDUP
NATIONAL WEATHER SERVICE TAMPA BAY RUSKIN FL
600 AM EDT TUE MAR 19 2019

NOTE: "FAIR" INDICATES FEW OR NO CLOUDS BELOW 12,000 FEET WITH NO
SIGNIFICANT WEATHER AND/OR OBSTRUCTIONS TO VISIBILITY.

FLZ001>010-012>015-112-114-115-191100-
PANHANDLE FLORIDA
  
CITY           SKY/WX    TMP DP  RH WIND       PRES   REMARKS
PENSACOLA      FAIR      51  29  42 N9        30.22S                  
PENSACOLA NAS  FAIR      51  29  42 N13       30.22S                  
MILTON NAS     FAIR      47  29  49 N3        30.23F                  
CRESTVIEW      FAIR      48  26  42 VRB6      30.23F                  
DUKE FIELD     FAIR      47  26  44 N7        30.21F WCI  44          
VALPARAISO     FAIR      49  27  41 N9        30.20F                  
MARY ESTHER    MOCLDY    50  23  34 NE9       30.20S                  
PANAMA CITY    FAIR      50  33  52 N8        30.19S                  
TYNDALL AFB    FAIR      53  29  39 NE12      30.18S                  
APALACHICOLA   FAIR      53  30  41 NE9       30.17R                  

STATION/POSITION SKY/WX   TEMP    WIND        PRES    WAVE   SWELL
                          AIR SEA DIR/SP/G            HT/PER HT/PER
                          (F)     (DEG/KT/KT) (MB)    (FT/S) (FT/S)
30.1N   87.6W                                 1023.3R   4/ 5
29.2N   88.2W                      40/ 21/ 27 1022.1R   7/ 6
PANAMA CITY BEAC           51 64   20/ 12/ 16 1022.4F
TOWER C                    58      40/ 22/ 25 1021.1R

$$
FLZ011-016>038-118-127-128-134-139-239-191100-
NORTH FLORIDA
  
CITY           SKY/WX    TMP DP  RH WIND       PRES   REMARKS
MARIANNA       FAIR      49  27  42 N8        30.20S                  
TALLAHASSEE    MOCLDY    52  27  38 N6        30.17S                  
PERRY          FAIR      52  31  43 N6        30.17R                  
LIVE OAK       CLOUDY    52  28  40 N5        30.16S                  
CROSS CITY     FAIR      54  32  43 N9        30.14S                  
LAKE CITY      FAIR      52  30  43 N10       30.15F                  
GAINESVILLE    FAIR      57  35  43 N9        30.16S                  
WILLISTON        N/A    N/A N/A N/A MISG        N/A                   
PALATKA        FAIR     N/A N/A N/A N6        30.14S                  
MAYPORT NAS    CLOUDY    56  45  66 N6        30.15R                  
JACKSONVILLE   CLOUDY    52  36  54 N6        30.15S                  
JAX NAS        CLOUDY    57  36  45 N16       30.15S                  
JAX CECIL      CLOUDY   N/A N/A N/A N6        30.15S                  
FERNANDINA BEA FAIR      55  47  75 N9        30.16R                  
ST AUGUSTINE   FAIR      55  45  68 N10       30.15R                  
PALM COAST     PTCLDY    57  46  67 N9        30.12S                  

STATION/POSITION SKY/WX   TEMP    WIND        PRES    WAVE   SWELL
                          AIR SEA DIR/SP/G            HT/PER HT/PER
                          (F)     (DEG/KT/KT) (MB)    (FT/S) (FT/S)
SHELL POINT      NOT AVBL
KEATON BEACH               52      20/  6/  9 1021.3R
CEDAR KEY                  56      40/  9/ 12 1019.9F
FERNANDINA                 57 63  350/  7/ 11 1021.8R
30.7N   81.3W                 63                N/A     4/ 7   2/11
MAYPORT                    55 63  350/  5/  6 1020.9R
31.4N   80.9W              60 62   50/ 25/ 33 1021.0R   5/ 5   2/11
ST AUGUSTINE               57 62  340/ 11/ 12 1020.5R

$$
FLZ040-043>046-052-053-057-058-063-144-191100-
INTERIOR CENTRAL FLORIDA
  
CITY           SKY/WX    TMP DP  RH WIND       PRES   REMARKS
OCALA          FAIR      56  43  61 N7        30.12F                  
LEESBURG       FAIR      58  43  57 N8        30.11F                  
SANFORD        CLOUDY    60  45  57 N8        30.10R                  
ORLANDO EXEC   LGT RAIN  58  49  72 N5        30.10R                  
ORLANDO INTL   LGT RAIN  56  49  77 N7        30.10R                  
KISSIMMEE      LGT RAIN  57  52  83 N5        30.11R                  
WINTER HAVEN   LGT RAIN  56  51  84 NE7       30.10S                  
LAKELAND       PTCLDY    54  50  87 MISG      30.10                   
BARTOW         LGT RAIN  55  52  88 NE3       30.09S                  
SEBRING        LGT RAIN  54  53  95 N10       30.08R                  
OKEECHOBEE     LGT RAIN  55  55 100 N7        30.05R                  

$$
FLZ041-047-054-059-064-141-147-191100-
EAST CENTRAL FLORIDA
  
CITY           SKY/WX    TMP DP  RH WIND       PRES   REMARKS
DAYTONA BEACH  CLOUDY    62  48  60 N10       30.11R                  
DELAND         CLOUDY    59  45  58 N8        30.11R                  
JFK SPACE CTR  FAIR      59  55  85 N5        30.09R                  
TITUSVILLE     CLOUDY    59  57  94 NW3       30.09F                  
CAPE CANAVERAL LGT RAIN  61  55  82 NE7       30.08R                  
PATRICK AFB    CLOUDY    62  60  94 NE12      30.08R                  
MELBOURNE      RAIN      62  57  83 NE12      30.08R                  
VERO BEACH     LGT RAIN  63  59  87 NE9       30.06R                  
FT PIERCE      LGT RAIN  63  58  83 NE7       30.05S                  
STUART         DRIZZLE   64  59  82 NE12      30.06S                  

STATION/POSITION SKY/WX   TEMP    WIND        PRES    WAVE   SWELL
                          AIR SEA DIR/SP/G            HT/PER HT/PER
                          (F)     (DEG/KT/KT) (MB)    (FT/S) (FT/S)
28.5N   80.2W              67      50/ 17/ 21 1018.7
28.9N   78.5W              66 74   50/ 19/ 23 1018.5R   6/ 8   2/11
TRIDENT PIER               59 68   20/  4/  6 1019.6R
28.4N   80.5W                 66                N/A     3/ 8
27.5N   80.2W                 69                N/A     6/ 8   2/11

$$
FLZ050-056-061-142-242-148-248-149-249-151-251-155-255-
160-260-191100-
WEST CENTRAL FLORIDA
  
CITY           SKY/WX    TMP DP  RH WIND       PRES   REMARKS
CRYSTAL RIVER  MOCLDY    55  41  58 NE5       30.11S                  
INVERNESS      CLOUDY    57  43  58 N5        30.11F                  
BROOKSVILLE    MOCLDY    57  41  55 N6        30.11F                  
CLEARWATER AIR LGT RAIN  55  45  67 NE5       30.09S                  
ST PETE CLEARW CLOUDY    58  47  66 NE9       30.09F                  
TAMPA INTL     CLOUDY    57  50  77 NE5       30.09F                  
TAMPA EXEC     CLOUDY    54  52  94 CALM      30.10S                  
PLANT CITY     CLOUDY    55  54  94 CALM      30.11F                  
MACDILL AFB    CLOUDY    55  48  76 NE7       30.08F                  
PETER O KNIGHT CLOUDY    57  52  82 NE6       30.09F                  
ST PETERSBURG  CLOUDY    61  50  67 NE17      30.07F                  
SARASOTA       LGT RAIN  53  49  86 NE9       30.06F                  
VENICE         RAIN      52  50  93 NE16G24   30.07F                  

STATION/POSITION SKY/WX   TEMP    WIND        PRES    WAVE   SWELL
                          AIR SEA DIR/SP/G            HT/PER HT/PER
                          (F)     (DEG/KT/KT) (MB)    (FT/S) (FT/S)
27.3N   84.2W                 72                N/A     7/ 6
CLEARWATER BEACH                   40/  7/ 10 1018.8F
MIDDLE TAMPA BAY           60      70/ 16/ 21 1018.7F
VENICE                     51 72   30/ 13/ 17 1018.1R

$$
FLZ066-069-070-075>078-162-262-165-265-191100-
SOUTHWEST FLORIDA AND KEYS
  
CITY           SKY/WX    TMP DP  RH WIND       PRES   REMARKS
PUNTA GORDA    LGT RAIN  54  52  93 N14       30.07S                  
FT MYERS       LGT RAIN  56  55  97 NE12      30.03R                  
SOUTHWEST INTL RAIN      57  56  96 NE10      30.05R                  
NAPLES         RAIN     N/A N/A N/A NE16      30.02R                  
MARCO ISLAND   HVY RAIN  60  59  96 N13G23    30.03R FOG              
IMMOKALEE      RAIN      59  57  94 N9        30.03R                  
MARATHON       CLOUDY    72  67  84 NE16G24   29.95S                  
KEY WEST NAS   LGT RAIN  71  68  90 NE14      29.95S                  
KEY WEST INTL  RAIN      70  68  93 NE14G21   29.95S FOG              

STATION/POSITION SKY/WX   TEMP    WIND        PRES    WAVE   SWELL
                          AIR SEA DIR/SP/G            HT/PER HT/PER
                          (F)     (DEG/KT/KT) (MB)    (FT/S) (FT/S)
NAPLES                     61 74   50/  9/ 16 1016.8R
26.0N   85.6W              68 79   50/ 16/ 19 1017.1
DRY TORTUGAS               69      50/ 31/ 34 1014.4S
SAND KEY                   71                 1013.5F
SOMBRERO KEY               71                 1013.4S
MOLASSES REEF              71 78  360/ 18/ 20 1014.2

$$
FLZ067-068-071>074-168-172>174-191100-
SOUTHEAST FLORIDA 
  
CITY           SKY/WX    TMP DP  RH WIND       PRES   REMARKS
W PALM BEACH   LGT RAIN  66  62  87 N14       30.01S                  
FT LAUDER-EXEC LGT RAIN  68  66  93 NE12G23   29.98R                  
FT LAUDERDALE  CLOUDY    69  63  81 NE15G30   29.96R                  
POMPANO BEACH  CLOUDY    69  64  84 NE22G30   29.98S                  
PEMBROKE PINES LGT RAIN  68  63  84 N16G28    30.00R                  
OPA LOCKA      LGT RAIN  69  63  81 N16G24    29.98R                  
MIAMI          LGT RAIN  69  66  90 NE9       29.98R                  
WEST KENDALL   CLOUDY    70  65  84 NE15      29.97R                  
HOMESTEAD      LGT RAIN  69  66  91 N14       29.95S                  

STATION/POSITION SKY/WX   TEMP    WIND        PRES    WAVE   SWELL
                          AIR SEA DIR/SP/G            HT/PER HT/PER
                          (F)     (DEG/KT/KT) (MB)    (FT/S) (FT/S)
VIRGINIA KEY               69 78   10/  9/ 17 1013.6F
LAKE WORTH                 65 76   40/ 27/ 31 1016.9S
FOWEY ROCKS                70 78   20/ 25/ 27 1015.1R
SETTLEMENT POINT           68      30/ 29/ 32 1015.3F

$$